Location: Unspecified
(0.0000°N, 0.0000°E)
Time: 13:08:45
(UTC+00:00)

JUGNU - Pass Details

Date: 19 February 2020
Orbit: 836 x 864 km, 20.0° (Epoch: 01 April)

Event Time Altitude Azimuth Distance (km) Brightness Sun altitude
Exits shadow 03:57:17 10° 184° (S) 2,479 ? -33.4°
Maximum altitude 03:58:14 10° 175° (S) 2,454 ? -33.2°
Drops below altitude 10° 03:59:14 10° 165° (SSE) 2,484 ? -32.9°
Sets 04:04:37 0° 126° (SE) 3,426 ? -31.6°
